TimePST,TemperatureF,Dew PointF,Humidity,Sea Level PressureIn,VisibilityMPH,Wind Direction,Wind SpeedMPH,Gust SpeedMPH,PrecipitationIn,Events,Conditions,WindDirDegrees,DateUTC
12:32 AM,44.6,44.6,100,30.18,5.0,Calm,Calm,-,N/A,,Overcast,0,2013-11-29 08:32:00
12:53 AM,45.0,43.0,93,30.21,5.0,Calm,Calm,-,N/A,,Overcast,0,2013-11-29 08:53:00
1:04 AM,44.6,42.8,93,30.19,5.0,Calm,Calm,-,0.01,Rain,Light Rain,0,2013-11-29 09:04:00
1:53 AM,45.0,43.0,93,30.21,4.0,Calm,Calm,-,0.01,,Overcast,0,2013-11-29 09:53:00
2:09 AM,44.6,42.8,93,30.18,4.0,Calm,Calm,-,0.00,Rain,Light Rain,0,2013-11-29 10:09:00
2:53 AM,45.0,43.0,93,30.22,10.0,South,3.5,-,0.00,,Overcast,170,2013-11-29 10:53:00
3:53 AM,45.0,42.1,90,30.21,10.0,South,6.9,-,N/A,,Overcast,170,2013-11-29 11:53:00
4:53 AM,46.0,42.1,86,30.21,10.0,South,5.8,-,0.01,Rain,Light Rain,180,2013-11-29 12:53:00
5:53 AM,46.0,42.1,86,30.21,10.0,South,6.9,-,0.00,Rain,Light Rain,180,2013-11-29 13:53:00
6:53 AM,46.0,41.0,83,30.23,7.0,South,6.9,-,0.01,Rain,Light Rain,170,2013-11-29 14:53:00
7:53 AM,46.0,39.9,79,30.24,10.0,South,6.9,-,0.00,,Overcast,170,2013-11-29 15:53:00
8:53 AM,46.0,39.9,79,30.25,10.0,SSE,11.5,-,0.01,,Overcast,160,2013-11-29 16:53:00
9:53 AM,46.9,42.1,83,30.25,10.0,South,4.6,-,N/A,,Overcast,180,2013-11-29 17:53:00
10:53 AM,48.0,39.9,74,30.28,10.0,South,8.1,-,N/A,,Overcast,170,2013-11-29 18:53:00
11:53 AM,48.0,42.1,80,30.27,10.0,South,8.1,-,N/A,,Overcast,170,2013-11-29 19:53:00
12:23 PM,48.2,42.8,82,30.24,10.0,South,8.1,-,N/A,,Overcast,170,2013-11-29 20:23:00
12:36 PM,48.2,42.8,82,30.24,10.0,South,10.4,-,N/A,,Overcast,170,2013-11-29 20:36:00
12:53 PM,48.0,43.0,83,30.27,10.0,SSE,10.4,-,N/A,,Overcast,160,2013-11-29 20:53:00
1:27 PM,48.2,42.8,82,30.24,10.0,SSE,10.4,-,N/A,,Overcast,160,2013-11-29 21:27:00
1:53 PM,48.9,43.0,80,30.27,10.0,South,6.9,-,N/A,,Overcast,170,2013-11-29 21:53:00
2:44 PM,48.2,44.6,87,30.25,10.0,South,8.1,-,N/A,,Overcast,170,2013-11-29 22:44:00
2:53 PM,48.9,44.1,83,30.28,9.0,South,8.1,-,N/A,,Overcast,180,2013-11-29 22:53:00
3:12 PM,48.2,44.6,87,30.25,9.0,South,6.9,-,N/A,,Overcast,170,2013-11-29 23:12:00
3:24 PM,48.2,42.8,82,30.25,10.0,South,5.8,-,N/A,,Overcast,180,2013-11-29 23:24:00
3:53 PM,48.0,42.1,80,30.28,10.0,South,6.9,-,N/A,,Overcast,180,2013-11-29 23:53:00
4:53 PM,46.9,42.1,83,30.28,10.0,SSE,9.2,-,N/A,,Overcast,160,2013-11-30 00:53:00
5:53 PM,46.9,41.0,80,30.29,10.0,South,10.4,-,N/A,,Overcast,170,2013-11-30 01:53:00
6:53 PM,48.0,42.1,80,30.29,10.0,SSE,10.4,-,N/A,,Overcast,160,2013-11-30 02:53:00
7:04 PM,46.4,41.0,81,30.27,10.0,SSE,9.2,-,N/A,,Overcast,160,2013-11-30 03:04:00
7:53 PM,46.9,41.0,80,30.31,10.0,South,12.7,20.7,N/A,,Overcast,170,2013-11-30 03:53:00
8:02 PM,46.4,41.0,81,30.28,10.0,South,10.4,20.7,N/A,,Overcast,170,2013-11-30 04:02:00
8:53 PM,48.0,42.1,80,30.30,10.0,SSE,9.2,-,N/A,,Overcast,150,2013-11-30 04:53:00
9:01 PM,48.2,42.8,82,30.28,10.0,SSE,8.1,-,N/A,,Overcast,150,2013-11-30 05:01:00
9:53 PM,46.9,43.0,86,30.30,8.0,South,9.2,17.3,0.01,Rain,Light Rain,180,2013-11-30 05:53:00
10:00 PM,46.4,42.8,87,30.28,7.0,South,8.1,18.4,0.01,Rain,Light Rain,180,2013-11-30 06:00:00
10:22 PM,46.4,44.6,93,30.29,5.0,South,9.2,-,0.03,Rain,Light Rain,170,2013-11-30 06:22:00
10:53 PM,46.0,44.1,93,30.32,5.0,South,8.1,-,0.06,Rain,Light Rain,170,2013-11-30 06:53:00
11:24 PM,46.4,44.6,93,30.30,6.0,South,6.9,-,0.01,Rain,Light Rain,180,2013-11-30 07:24:00
11:36 PM,46.4,44.6,93,30.30,6.0,South,6.9,-,0.01,Rain,Light Rain,170,2013-11-30 07:36:00
11:53 PM,46.0,44.1,93,30.33,4.0,South,6.9,-,0.02,Rain,Light Rain,170,2013-11-30 07:53:00